Portada
METAR-TAF:

METAR-TAF

Aeroports :

Batesville, Arkansas, Estats Units d'Amèrica

latitud: 35-44N, longitud: 091-39W, altitud: 141 m

Observació

L'informe es va fer fa 4 minuts, a les 17:56 UTC
Vent 4 kt amb direcció variable
Temperatura 31°C
Humitat 46%
Pressió 1017 hPa
Visibilitat: 16.1 km
Cel clar

METAR: KBVX 141756Z AUTO VRB04KT 10SM CLR 31/18 A3003 RMK AO2 SLP163 6//// T03110178 10317 20200 58008

Hora: 13:00 (18:00 UTC)


TAF: manca

Observacions i pronòstics meteorològics de més de 4000 aeroports (METAR i TAF).

Les estacions disponibles són els punts grocs i vermells al mapa.

Posi el ratolí al punt desitjat per veure el nom de l'estació.

Feu clic per veure les observacions i els pronòstics meteorològics.

Per canviar el mapa: feu clic els botons verds amb una creu de color negre per apropar; al botó verd amb un guió per allunyar la imatge; o en les fletxes verdes per a mapes adjacents.


METAR-TAF: